Regional Weather Roundup
Issued by NWS Burlington, VT

Home | Current Version | Previous Version | Text Only | Print | Product List | Glossary On
Versions: 1 2 3 4 5 6 7 8 9 10 11 12 13 14 15 16 17 18 19 20 21 22 23 24 25 26 27 28 29 30 31 32 33 34 35 36 37 38 39 40 41 42 43 44 45 46 47 48 49 50
000
ASUS41 KBTV 300930
RWRBTV
VERMONT REGIONAL WEATHER ROUNDUP
NATIONAL WEATHER SERVICE BURLINGTON VT
500 AM EDT SUN AUG 30 2015

NOTE: "FAIR" INDICATES FEW OR NO CLOUDS BELOW 12,000 FEET WITH NO
SIGNIFICANT WEATHER AND/OR OBSTRUCTIONS TO VISIBILITY.

* THESE REPORTS ARE NOT UNDER NWS QUALITY CONTROL AND/OR DO NOT
  REPORT WEATHER SUCH AS PRECIPITATION AND FOG.

VTZ001>019-301000-
_____VERMONT_____


CITY           SKY/WX    TMP DP  RH WIND       PRES   REMARKS
BURLINGTON     MOCLDY    64  59  83 CALM      30.05S
MONTPELIER     CLOUDY    60  57  89 CALM      30.11S
MORRISVILLE    CLOUDY    61  58  90 CALM      30.07F
ST. JOHNSBURY*   N/A     61  58  90 MISG      30.05F
LYNDONVILLE*   MOCLDY    58  57  98 CALM      30.09S FOG
MIDDLEBURY*    FAIR      65  59  82 CALM      30.05S
RUTLAND*       CLOUDY    61  55  82 CALM      30.09S
SPRINGFIELD    PTCLDY    58  57  97 CALM      30.07S
HIGHGATE*      FAIR      64  60  88 CALM      30.04S
NEWPORT*       MOCLDY    60  57  91 SW5       30.06S
BENNINGTON     CLOUDY    55  54  96 CALM      30.08S FOG
SUTTON*          N/A     59 N/A N/A MISG        N/A
MT. MANSFIELD*   N/A     54 N/A N/A NW20        N/A

_____LAKE CHAMPLAIN_____


CITY           SKY/WX    TMP DP  RH WIND       PRES   REMARKS
COLCHESTER RF*   N/A     70  64  83 SE2         N/A
DIAMOND ISL*     N/A     66  63  88 E5          N/A

$$

NYZ007-026>031-035-052-083-301000-
_____NORTHERN NEW YORK_____


CITY           SKY/WX    TMP DP  RH WIND       PRES   REMARKS
PLATTSBURGH    MOCLDY    61  59  93 W3        30.04S
SARANAC LAKE   MOCLDY    55  54  96 CALM      30.08S
MASSENA        PTCLDY    61  58  90 SW6       30.06R
OGDENSBURG*    CLEAR     59  59 100 SW3       30.05S FOG
POTSDAM*       CLEAR     59  59 100 CALM      30.06S
WATERTOWN      CLOUDY    60  58  92 CALM      30.07R
FT DRUM        MOCLDY    63  58  85 S3        30.06S
ALBANY         MOCLDY    62  58  86 CALM      30.07S
GLENS FALLS    MOCLDY    61  59  93 CALM      30.06S

$$
NHZ002-005-011-301000-
_____NEW HAMPSHIRE_____


CITY           SKY/WX    TMP DP  RH WIND       PRES   REMARKS
LEBANON        PTCLDY    60  57  89 CALM      30.06S
KEENE          CLOUDY    57  52  82 CALM      30.08S VSB 1/2
MT WASHINGTON  MOCLDY    45  39  81 W23         N/A
PLYMOUTH       FAIR      58  57  96 CALM      30.05F
WHITEFIELD     CLOUDY    59  56  89 CALM      30.08S

$$

_____REGIONAL QUEBEC LOCATIONS_____


CITY           SKY/WX    TMP DP  RH WIND       PRES   REMARKS
MONTREAL       MOCLDY    64  63  94 SW7       30.02S
QUEBEC CITY    CLOUDY    63  61  94 SW7       29.97S
SHERBROOKE     CLOUDY    63  59  88 SW6       30.03S

_____REGIONAL ONTARIO LOCATIONS_____


CITY           SKY/WX    TMP DP  RH WIND       PRES   REMARKS
OTTAWA         PTCLDY    59  59 100 SW6       30.05S

______KEY______
VSB  - VISIBILITY IN MILES
WCI  - WIND CHILL INDEX
HX   - HEAT INDEX
$$
NNNN


USA.gov is the U.S. government's official web portal to all federal, state and local government web resources and services.